Meteo Giornale » Osservazioni meteo Ungheria » Szolnok

ore: 04:15 - Osservazioni Meteo Szolnok
Lat. 47° 7' N Lon. 20° 14' E Alt. 89 metri s.l.m.

sereno Europe/Budapest

1 °C

Sereno

Temp. 24 Ore

-2 °C

7 °C

Est

11.1 Km/h

Dew point -0 °C

Umidità 93 %

Visibilità  7 Km

Il sole sorge alle ore 07:07

Il sole tramonta alle ore 15:51

Data e Ora Cielo e Fenomeni T °C DP °C Um. % Pres. hPa Vis. km Vento km/h
Oggi h: 04:15 sereno Sereno 1 -0 93 1010 7 E 11.1
Oggi h: 03:45 sereno Sereno 1 -0 93 1010 7 E/NE 7.4
Oggi h: 03:15 sereno Sereno 2 1 93 1010 7 E 11.1
Oggi h: 02:45 sereno Sereno 1 0 93 1010 7 E 11.1
Oggi h: 02:15 sereno Sereno 1 1 100 1010 6 E 11.1
Oggi h: 01:45 sereno Sereno 0 -0 100 1010 6 E 11.1
Oggi h: 01:15 sereno Sereno 0 -0 100 1010 6 E/NE 11.1
Oggi h: 00:45 sereno Sereno 1 1 100 1010 6 E 11.1
Oggi h: 00:15 sereno Sereno 1 0 93 1009 6 E 7.4
Ieri h: 23:45 sereno Sereno 1 1 100 1010 6 E 7.4
Ieri h: 23:15 sereno Sereno 1 0 93 1010 6 E/NE 11.1
Ieri h: 22:45 sereno Sereno 2 1 93 1010 6 E 11.1
Ieri h: 22:15 sereno Sereno 1 1 100 1010 6 E 11.1
Ieri h: 21:45 sereno Sereno 2 1 93 1010 6 E 11.1
Ieri h: 21:15 sereno Sereno 1 1 100 1009 6 E 7.4
Ieri h: 20:45 sereno Sereno 2 1 93 1010 6 E 7.4
Ieri h: 20:15 sereno Sereno 2 1 93 1009 6 E 11.1
Ieri h: 19:45 sereno Sereno 2 1 93 1009 8 E 7.4
Ieri h: 19:15 sereno Sereno 3 2 93 1009 8 N 3.7
Ieri h: 18:45 sereno Sereno 4 3 93 1009 10 E 7.4
Ieri h: 18:15 sereno Sereno 4 3 93 1009 10 E 11.1
Ieri h: 17:45 sereno Sereno 4 3 93 1009 10 E/SE 11.1
Ieri h: 16:45 sereno Sereno 5 3 86 1008 10 E 11.1
Ieri h: 16:15 sereno Sereno 5 3 86 1008 10 E/SE 7.4
Ieri h: 15:45 sereno Sereno 6 4 86 1008 10 E 11.1
Ieri h: 15:15 sereno Sereno 6 4 86 1008 10 E 11.1
Ieri h: 14:45 sereno Sereno 7 3 75 1008 10 E 11.1
Ieri h: 14:15 sereno Sereno 6 3 81 1008 10 E/SE 11.1
Ieri h: 13:45 sereno Sereno 6 3 81 1008 10 E 11.1
Ieri h: 13:15 sereno Sereno 6 3 81 1008 10 E 11.1
Ieri h: 12:45 sereno Sereno 6 3 81 1008 10 E/SE 11.1
Ieri h: 12:15 sereno Sereno 6 2 75 1008 10 E/SE 7.4
Ieri h: 11:45 sereno Sereno 6 3 81 1008 10 E 11.1
Ieri h: 11:15 sereno Sereno 5 2 80 1008 10 E 11.1
Ieri h: 10:45 sereno Sereno 4 1 80 1009 10 E 7.4
Ieri h: 10:15 sereno Sereno 3 1 86 1009 10 E 7.4
Ieri h: 09:45 sereno Sereno 2 0 86 1009 10 N 3.7
Ieri h: 09:15 sereno Sereno 1 0 93 1008 10 N 3.7
Ieri h: 08:45 sereno Sereno 0 -0 100 1008 8 E/NE 7.4
Ieri h: 08:15 sereno Sereno -0 -1 92 1008 10 NE 7.4
Ieri h: 07:45 sereno Sereno -1 -1 100 1008 8 NE 7.4
Ieri h: 07:15 sereno Sereno -1 -1 100 1008 8 E/NE 11.1
Ieri h: 06:45 sereno Sereno -1 -1 100 1008 8 N 3.7
Ieri h: 06:15 sereno Sereno -1 -1 100 1008 8 E/NE 11.1
Ieri h: 05:45 sereno Sereno -1 -1 100 1007 10 NE 7.4
Ieri h: 05:15 sereno Sereno -1 -1 100 1007 10 E/NE 7.4
Ieri h: 04:45 sereno Sereno -1 -1 100 1007 8 E 7.4
Ieri h: 04:15 sereno Sereno -2 -2 100 1007 8 E 7.4
Ieri h: 03:45 sereno Sereno -2 -2 100 1008 8 E 7.4